Spokane Felts, WA

9:38 AM PDT on April 26, 2018 (GMT -0700)
Felts

Weather History for KSFF - March, 2014

Change the Weather History Date:

Friday, March 21, 2014

  Actual Average Record
Temperature  
Mean Temperature 36 °F 42 °F  
Max Temperature 48 °F 52 °F 66 °F (2004)
Min Temperature 24 °F 33 °F 19 °F (2002)
Degree Days  
Heating Degree Days 29 23  
Month to date heating degree days 522 535  
Since 1 July heating degree days 5201 5106  
Cooling Degree Days 0 0  
Month to date cooling degree days 0 0  
Year to date cooling degree days 0 0  
Moisture  
Dew Point 20 °F    
Average Humidity 58    
Maximum Humidity 92    
Minimum Humidity 23    
Precipitation  
Precipitation 0.00 in 0.06 in 0.37 in (2011)
Month to date precipitation 2.54 0.98  
Year to date precipitation 5.18 4.31  
Sea Level Pressure  
Sea Level Pressure 30.29 in    
Wind  
Wind Speed 2 mph (NNE)    
Max Wind Speed 9 mph    
Max Gust Speed 13 mph    
Visibility 10 miles    
Events Fog    
T = Trace of Precipitation, MM = Missing Value Source: NWS Daily Summary

Daily Weather History Graph

Daily Weather History Graph

Search for Another Location

Airport or City:

Astronomy

Mar. 21, 2014 Rise Set
Actual Time 6:49 AM PDT 7:03 PM PDT
Civil Twilight 6:19 AM PDT 7:34 PM PDT
Nautical Twilight 5:42 AM PDT 8:10 PM PDT
Astronomical Twilight 5:05 AM PDT 8:48 PM PDT
Moon No Moon Rise 9:26 AM PDT (3/21)
Length of Visible Light 13h 15m
Length of Day
12h 13m
Waning Gibbous, 74% of the Moon is Illuminated
Mar 21
Waning Gibbous
Mar 23
Last Quarter
Mar 30
New
Apr 7
First Quarter
Apr 15
Full

Hourly Weather History & Observations

Time (PDT) Temp. Windchill Dew Point Humidity Pressure Visibility Wind Dir Wind Speed Gust Speed Precip Events Conditions
12:53 AM 28.9 °F 25.2 °F 25.0 °F 85% 30.28 in 10.0 mi NNE 3.5 mph - N/A   Clear
1:53 AM 28.9 °F 25.2 °F 25.0 °F 85% 30.29 in 10.0 mi NNE 3.5 mph - N/A   Clear
2:53 AM 28.0 °F - 24.1 °F 85% 30.29 in 10.0 mi Calm Calm - N/A   Clear
3:53 AM 26.1 °F 21.9 °F 23.0 °F 88% 30.30 in 10.0 mi NE 3.5 mph - N/A   Clear
4:53 AM 27.0 °F - 24.1 °F 89% 30.30 in 10.0 mi Calm Calm - N/A   Clear
5:53 AM 26.1 °F - 23.0 °F 88% 30.31 in 10.0 mi Calm Calm - N/A   Clear
6:53 AM 25.0 °F - 21.9 °F 88% 30.32 in 10.0 mi Calm Calm - N/A Fog Patches of Fog
7:53 AM 26.1 °F - 24.1 °F 92% 30.32 in 9.0 mi Calm Calm - N/A   Partly Cloudy
8:53 AM 28.9 °F 25.2 °F 26.1 °F 89% 30.32 in 7.0 mi ENE 3.5 mph - N/A   Partly Cloudy
9:53 AM 33.1 °F - 27.0 °F 78% 30.33 in 10.0 mi Calm Calm - N/A   Clear
10:53 AM 37.9 °F - 27.0 °F 65% 30.31 in 10.0 mi Calm Calm - N/A   Partly Cloudy
11:53 AM 39.9 °F - 25.0 °F 55% 30.31 in 10.0 mi Calm Calm - N/A   Partly Cloudy
12:53 PM 43.0 °F 40.3 °F 21.9 °F 43% 30.29 in 10.0 mi SW 4.6 mph - N/A   Scattered Clouds
1:53 PM 45.0 °F 43.5 °F 19.0 °F 36% 30.27 in 10.0 mi Variable 3.5 mph - N/A   Scattered Clouds
2:53 PM 46.9 °F - 15.1 °F 28% 30.26 in 10.0 mi NNW 4.6 mph - N/A   Scattered Clouds
3:53 PM 45.0 °F - 10.9 °F 25% 30.24 in 10.0 mi Calm Calm - N/A   Clear
4:53 PM 46.0 °F - 10.0 °F 23% 30.23 in 10.0 mi Calm Calm - N/A   Scattered Clouds
5:53 PM 44.1 °F 41.5 °F 14.0 °F 30% 30.24 in 10.0 mi NNW 4.6 mph - N/A   Mostly Cloudy
6:53 PM 43.0 °F 40.3 °F 10.9 °F 27% 30.25 in 10.0 mi NNW 4.6 mph - N/A   Overcast
7:53 PM 37.9 °F - 17.1 °F 43% 30.26 in 10.0 mi Calm Calm - N/A   Partly Cloudy
8:53 PM 33.1 °F 28.7 °F 18.0 °F 54% 30.28 in 10.0 mi NNE 4.6 mph - N/A   Clear
9:53 PM 32.0 °F 28.7 °F 17.1 °F 54% 30.29 in 10.0 mi NNE 3.5 mph - N/A   Clear
10:53 PM 28.9 °F 25.2 °F 19.0 °F 67% 30.30 in 10.0 mi Variable 3.5 mph - N/A   Clear
11:53 PM 28.9 °F - 18.0 °F 64% 30.30 in 10.0 mi Calm Calm - N/A   Clear